EW3221 Weather Reports


time (UTC)temp
C
wind
direction
speed
KPH
gust
KPH
rain 1hr
cm
rain 24hr
cm
rain mn
cm
humidity
%
barometer
mb
20260504201536 25 86 0.0 11.3 0.00 0.00 0.00 42 1010.1
20260504200033 25 111 1.6 11.3 0.00 0.00 0.00 36 1010.3
20260504194532 25 192 4.8 12.9 0.00 0.00 0.00 35 1010.4
20260504193029 25 108 8.0 19.3 0.00 0.00 0.00 36 1010.7
20260504191528 25 245 3.2 16.1 0.00 0.00 0.00 35 1011.0
20260504190025 25 144 1.6 14.5 0.00 0.00 0.00 39 1011.1
20260504184523 24 188 1.6 14.5 0.00 0.00 0.00 35 1011.4
20260504183020 25 248 0.0 19.3 0.00 0.00 0.00 37 1011.6
20260504181518 25 163 3.2 16.1 0.00 0.00 0.00 39 1011.8
20260504180016 23 199 1.6 12.9 0.00 0.00 0.00 41 1012.0
20260504174514 23 286 1.6 17.7 0.00 0.00 0.00 39 1012.0
20260504173010 24 169 4.8 16.1 0.00 0.00 0.00 41 1012.4
20260504171508 23 64 4.8 14.5 0.00 0.00 0.00 43 1012.6
20260504160103 22 243 3.2 14.5 0.00 0.00 0.00 36 1013.5
20260504081535 8 153 0.0 1.6 0.00 0.00 0.00 83 1015.6
20260504050009 5 264 0.0 0.0 0.00 0.00 0.00 85 1015.8
20260504044513 4 264 0.0 0.0 0.00 0.00 0.00 84 1015.7
20260504043011 4 264 0.0 0.0 0.00 0.00 0.00 83 1015.7
20260504041511 4 264 0.0 0.0 0.00 0.00 0.00 83 1015.9
20260504040100 4 264 0.0 0.0 0.00 0.00 0.00 81 1015.8
20260504034623 5 264 0.0 0.0 0.00 0.00 0.00 80 1015.7
20260504033059 5 264 0.0 0.0 0.00 0.00 0.00 80 1015.5
20260504031559 5 264 0.0 0.0 0.00 0.00 0.00 80 1015.4
20260504030058 5 264 0.0 0.0 0.00 0.00 0.00 80 1015.3
20260504024557 5 264 0.0 0.0 0.00 0.00 0.00 78 1015.3
20260504023056 5 264 0.0 0.0 0.00 0.00 0.00 76 1015.2
20260504021556 6 264 0.0 0.0 0.00 0.00 0.00 75 1015.2
20260504020119 6 264 0.0 0.0 0.00 0.00 0.00 74 1015.1
20260504014559 6 264 0.0 0.0 0.00 0.00 0.00 71 1015.0
20260504013113 7 264 0.0 0.0 0.00 0.00 0.00 69 1015.0
20260504011553 7 264 0.0 0.0 0.00 0.00 0.00 67 1014.8
20260504010055 8 264 0.0 0.0 0.00 0.00 0.00 65 1014.6
20260504004553 8 264 0.0 0.0 0.00 0.00 0.00 60 1014.7
20260504003053 10 264 0.0 0.0 0.00 0.00 0.00 57 1014.5
20260504001553 10 264 0.0 0.0 0.00 0.00 0.00 55 1014.4
20260504000052 11 254 0.0 0.0 0.00 0.00 0.00 51 1014.3
20260503234551 12 254 0.0 0.0 0.00 0.00 0.00 45 1014.1
20260503233051 13 254 0.0 1.6 0.00 0.00 0.00 42 1013.9
20260503231550 14 285 0.0 3.2 0.00 0.00 0.00 39 1013.9
20260503230049 15 5 1.6 14.5 0.00 0.00 0.00 36 1013.8
20260503224558 15 302 1.6 14.5 0.00 0.00 0.00 38 1013.9
20260503223049 15 262 0.0 9.7 0.00 0.00 0.00 36 1013.9
20260503221558 15 309 0.0 14.5 0.00 0.00 0.00 40 1013.9
20260503220048 16 223 0.0 8.0 0.00 0.00 0.00 36 1014.1
20260503214548 16 304 8.0 20.9 0.00 0.00 0.00 34 1014.0
20260503213047 16 298 0.0 12.9 0.00 0.00 0.00 33 1013.9
20260503211549 16 184 1.6 17.7 0.00 0.00 0.00 35 1014.0
20260503210045 16 253 0.0 8.0 0.00 0.00 0.00 36 1014.0
20260503204556 16 263 0.0 17.7 0.00 0.00 0.00 35 1014.0
20260503203046 16 280 0.0 14.5 0.00 0.00 0.00 36 1014.3